[[{"header":{"parameterUnit":"m.s-1","parameterCategory":1,"la1":30.2992,"la2":30.254,"lo1":-89.0895,"lo2":-89.0443,"dy":0.0025,"dx":0.0025,"nx":19,"ny":19,"refTime":"2026-05-14T09:00:00:Z","depth":0,"parameterNumber":2,"parameterNumberName":"U-component_of_WINDS"},"data":[0,0,0,-3.1692,-3.1693,-3.1749,-3.1749,-3.1829,-3.183,0,0,0,0,0,0,0,0,0,0,0,-3.168,-3.1681,-3.1692,-3.1694,-3.1749,-3.1749,-3.1829,-3.183,0,0,0,0,0,0,0,0,0,0,0,-3.168,-3.1681,-3.1682,-3.1694,-3.1749,-3.1749,-3.1829,-3.1784,0,0,0,0,0,0,0,0,0,0,-3.1728,-3.1722,-3.1681,-3.1682,-3.1694,-3.1749,-3.1749,-3.1781,-3.1787,-3.1808,0,-3.1827,0,-3.183,-3.1836,-3.1836,0,0,0,-3.169,-3.1718,-3.1728,-3.1682,-3.1695,-3.1749,-3.1723,-3.1784,-3.179,-3.1814,-3.1828,-3.1831,-3.1831,-3.1836,-3.1837,-3.1969,-3.197,0,0,-3.1687,-3.1693,-3.1725,-3.1732,-3.1724,-3.1721,-3.1725,-3.1788,-3.1803,-3.1828,-3.1832,-3.1832,-3.1837,-3.1837,-3.1969,-3.1969,0,0,0,-3.168,-3.1691,-3.17,-3.1729,-3.1739,-3.1723,-3.1727,-3.18,-3.1802,-3.1833,-3.1833,-3.1837,-3.1838,-3.1968,-3.1969,-3.2012,0,0,0,-3.1678,-3.1687,-3.1699,-3.1703,-3.1738,-3.177,-3.1738,-3.1798,-3.1805,-3.1833,-3.1837,-3.1839,-3.1967,-3.1968,-3.2009,-3.2031,0,0,0,-3.1675,-3.1686,-3.1696,-3.1703,-3.1727,-3.1769,-3.1775,-3.1799,-3.1805,-3.1836,-3.1839,-3.1966,-3.1968,-3.2006,-3.2026,-3.2067,0,0,0,-3.1673,-3.1734,-3.1697,-3.1765,-3.1727,-3.1796,-3.1774,-3.1825,-3.1857,-3.1838,-3.1967,-3.1969,-3.2006,-3.2024,-3.2064,-3.21,-3.2116,0,0,-3.1753,-3.1744,-3.1784,-3.1752,-3.1829,-3.1787,-3.1871,-3.1894,-3.1892,-3.1944,-3.1947,-3.201,-3.2026,-3.2066,-3.2209,-3.2222,0,0,0,-3.1811,-3.1839,-3.1858,-3.1889,-3.1909,-3.1928,-3.1939,-3.1948,-3.1992,-3.192,-3.2037,-3.2046,-3.2069,-3.2086,-3.2097,-3.2116,-3.1977,-3.1977,-3.1977,-3.193,-3.1925,-3.199,-3.1993,-3.2023,-3.2034,-3.2059,-3.2073,-3.2058,-3.2087,-3.2101,-3.2188,-3.2209,-3.2217,-3.2237,-3.2122,-3.2122,-3.2122,-3.2122,-3.2044,-3.2083,-3.2065,-3.2122,-3.2117,-3.2165,-3.218,-3.2168,-3.2213,-3.2177,-3.2197,-3.2156,-3.2231,-3.2248,-3.2125,-3.2125,-3.2124,-3.2124,-3.2124,-3.212,-3.2137,-3.2149,-3.2194,-3.223,-3.2231,-3.2275,-3.2269,-3.2264,-3.2285,-3.2299,-3.2298,-3.2295,-3.2292,-3.2293,-3.2293,-3.2293,-3.2294,-3.2294,-3.2192,-3.2204,-3.2241,-3.2269,-3.2289,-3.2315,-3.233,-3.2349,-3.237,-3.2362,-3.2362,-3.2345,-3.224,-3.2213,-3.2298,-3.2298,-3.2297,-3.2296,-3.2296,-3.2306,-3.228,-3.2337,-3.2357,-3.2392,-3.2428,-3.2422,-3.2463,-3.2479,-3.2501,-3.2481,-3.2405,-3.2394,-3.2386,-3.2363,-3.2482,-3.2482,-3.2482,-3.2482,-3.2368,-3.2363,-3.2421,-3.2454,-3.2486,-3.2487,-3.2553,-3.2566,-3.2576,-3.2586,-3.2568,-3.2539,-3.253,-3.2525,-3.2513,-3.2491,-3.2641,-3.2641,-3.2641,-3.2437,-3.2436,-3.2492,-3.2501,-3.2528,-3.2552,-3.2614,-3.2653,-3.2659,-3.2647,-3.2593,-3.2586,-3.2538,-3.2523,-3.2506,-3.2488,-3.2448,0,0]},{"header":{"parameterUnit":"m.s-1","parameterCategory":1,"la1":30.2992,"la2":30.254,"lo1":-89.0895,"lo2":-89.0443,"dy":0.0025,"dx":0.0025,"nx":19,"ny":19,"refTime":"2026-05-14T09:00:00:Z","depth":0,"parameterNumber":3,"parameterNumberName":"V-component_of_WINDS"},"data":[0,0,0,3.4956,3.4955,3.4891,3.4891,3.4815,3.4814,0,0,0,0,0,0,0,0,0,0,0,3.4979,3.4979,3.4956,3.4955,3.4891,3.4891,3.4815,3.4814,0,0,0,0,0,0,0,0,0,0,0,3.498,3.4979,3.4979,3.4954,3.4891,3.4891,3.4815,3.4861,0,0,0,0,0,0,0,0,0,0,3.4921,3.4948,3.4979,3.4979,3.4954,3.4891,3.4891,3.4863,3.4858,3.4847,0,3.4839,0,3.4826,3.481,3.481,0,0,0,3.495,3.4952,3.4931,3.4979,3.4954,3.4892,3.4919,3.486,3.4855,3.484,3.4838,3.4835,3.4825,3.4809,3.4809,3.4762,3.4762,0,0,3.4954,3.497,3.4935,3.4928,3.494,3.4921,3.4917,3.4857,3.4854,3.4838,3.4833,3.4823,3.4809,3.4808,3.4762,3.4762,0,0,0,3.4967,3.4972,3.4953,3.4931,3.492,3.4919,3.4914,3.4857,3.485,3.4832,3.4822,3.4809,3.4808,3.4762,3.4762,3.4778,0,0,0,3.4969,3.498,3.4955,3.4964,3.4921,3.4888,3.4916,3.4854,3.4846,3.4823,3.4808,3.4807,3.4762,3.4762,3.4777,3.4782,0,0,0,3.4982,3.4981,3.4974,3.4965,3.4938,3.4888,3.4877,3.4852,3.4841,3.481,3.4807,3.4762,3.4762,3.4777,3.4781,3.4775,0,0,0,3.5,3.4987,3.4975,3.4956,3.4939,3.4899,3.4877,3.4846,3.4822,3.4808,3.4762,3.4762,3.4777,3.4781,3.4774,3.4772,3.4773,0,0,3.4992,3.4986,3.4974,3.4962,3.4929,3.4908,3.4876,3.4837,3.4818,3.4782,3.478,3.4777,3.4781,3.4775,3.4772,3.4773,0,0,0,3.4977,3.4969,3.4957,3.4936,3.4907,3.4883,3.4848,3.4834,3.4802,3.4803,3.4773,3.4775,3.477,3.4768,3.4769,3.4764,3.4762,3.4762,3.4762,3.4988,3.4968,3.4947,3.4919,3.4899,3.4864,3.4845,3.4819,3.4802,3.4796,3.4784,3.4786,3.4784,3.4785,3.478,3.4782,3.4782,3.4782,3.4782,3.4975,3.496,3.4941,3.4914,3.4892,3.4869,3.4835,3.4824,3.4799,3.4792,3.4787,3.4781,3.4786,3.4781,3.4783,3.4783,3.4783,3.4783,3.4782,3.4979,3.4968,3.4953,3.4922,3.49,3.4872,3.4849,3.4829,3.481,3.4805,3.4792,3.4791,3.4788,3.4801,3.4801,3.4801,3.4801,3.4801,3.4801,3.4989,3.4972,3.4956,3.4927,3.4912,3.4889,3.4856,3.484,3.4817,3.4804,3.4804,3.4788,3.4791,3.4792,3.48,3.4801,3.4801,3.4801,3.4801,3.4982,3.4981,3.4957,3.4942,3.4907,3.4887,3.4864,3.4833,3.4817,3.4806,3.4792,3.4798,3.479,3.4789,3.479,3.4797,3.4797,3.4797,3.4797,3.4985,3.498,3.4952,3.493,3.4906,3.4883,3.4856,3.4831,3.4803,3.4792,3.4788,3.4788,3.4788,3.478,3.4779,3.4779,3.4784,3.4784,3.4784,3.498,3.4972,3.4953,3.493,3.4902,3.4878,3.4852,3.4826,3.4795,3.4783,3.4783,3.4783,3.4782,3.4783,3.4769,3.4769,3.4769,0,0]}]]